BKP130 VTSM-VTBD

Flight info

Callsign BKP130
Flight time 0h 58m
Altitude 38000
Route ENRAG1A ENRAG DCT EMTIX Y99 HOTEL DCT SABAI SABAI3A
Aircraft A319/M-SDE3FGHIRWY/LB1

Departure

Time 2026-05-04 23:11
Airport Samui International Airport (VTSM)

Arrival

Time 2026-05-05 00:09
Airport Don Mueang International Airport (VTBD)
Time Latitude Longitude Altitude Speed Heading
2026-05-04 22:57 9.55243 100.06326 53 ft 0 kts 84°
2026-05-04 23:00 9.55243 100.06323 53 ft 3 kts 83°
2026-05-04 23:00 9.55234 100.06299 50 ft 4 kts 34°
2026-05-04 23:00 9.55209 100.06291 48 ft 3 kts 356°
2026-05-04 23:00 9.55206 100.06291 53 ft 0 kts 354°
2026-05-04 23:05 9.55214 100.06291 53 ft 2 kts 354°
2026-05-04 23:06 9.55235 100.06288 51 ft 4 kts 354°
2026-05-04 23:06 9.55266 100.06285 53 ft 5 kts 353°
2026-05-04 23:06 9.55297 100.06259 53 ft 7 kts 289°
2026-05-04 23:06 9.55300 100.06207 53 ft 8 kts 290°
2026-05-04 23:07 9.55355 100.06190 53 ft 10 kts 357°
2026-05-04 23:07 9.55430 100.06184 53 ft 12 kts 354°
2026-05-04 23:07 9.55509 100.06176 52 ft 13 kts 354°
2026-05-04 23:07 9.55601 100.06174 53 ft 14 kts
2026-05-04 23:08 9.55679 100.06185 53 ft 10 kts 359°
2026-05-04 23:08 9.55697 100.06161 53 ft 5 kts 253°
2026-05-04 23:08 9.55665 100.06142 53 ft 7 kts 185°
2026-05-04 23:08 9.55616 100.06164 51 ft 9 kts 160°
2026-05-04 23:09 9.55580 100.06169 52 ft 0 kts 173°
2026-05-04 23:10 9.55436 100.06184 53 ft 52 kts 174°
2026-05-04 23:10 9.54856 100.06239 53 ft 114 kts 174°
2026-05-04 23:10 9.53899 100.06340 226 ft 148 kts 173°
2026-05-04 23:11 9.52916 100.06512 900 ft 143 kts 159°
2026-05-04 23:11 9.51995 100.06901 1489 ft 143 kts 156°
2026-05-04 23:11 9.51060 100.07290 1983 ft 152 kts 156°
2026-05-04 23:11 9.50012 100.07725 2259 ft 174 kts 156°
2026-05-04 23:12 9.48810 100.08222 2564 ft 199 kts 156°
2026-05-04 23:12 9.47472 100.08809 3054 ft 218 kts 149°
2026-05-04 23:12 9.46459 100.09941 3815 ft 222 kts 112°
2026-05-04 23:12 9.46237 100.11474 4714 ft 223 kts 89°
2026-05-04 23:13 9.46246 100.13043 5634 ft 223 kts 89°
2026-05-04 23:13 9.46252 100.14624 6510 ft 225 kts 89°
2026-05-04 23:13 9.46356 100.16214 7320 ft 229 kts 75°
2026-05-04 23:13 9.47162 100.17611 8117 ft 236 kts 44°
2026-05-04 23:14 9.48634 100.18419 8716 ft 257 kts 15°
2026-05-04 23:14 9.50477 100.18744 9125 ft 281 kts 11°
2026-05-04 23:14 9.52459 100.19048 9790 ft 292 kts 10°
2026-05-04 23:14 9.54486 100.19352 10548 ft 297 kts
2026-05-04 23:15 9.56576 100.19392 11302 ft 303 kts
2026-05-04 23:15 9.58693 100.19334 12075 ft 307 kts
2026-05-04 23:15 9.60842 100.19284 12833 ft 311 kts
2026-05-04 23:15 9.63016 100.19240 13588 ft 315 kts
2026-05-04 23:16 9.65217 100.19199 14249 ft 318 kts
2026-05-04 23:16 9.67444 100.19161 14912 ft 321 kts
2026-05-04 23:16 9.69689 100.19123 15576 ft 324 kts
2026-05-04 23:16 9.71955 100.19084 16229 ft 328 kts
2026-05-04 23:17 9.74243 100.19023 16888 ft 331 kts 358°
2026-05-04 23:17 9.76557 100.18849 17542 ft 335 kts 356°
2026-05-04 23:17 9.78883 100.18600 18186 ft 338 kts 355°
2026-05-04 23:17 9.81237 100.18320 18740 ft 342 kts 354°
2026-05-04 23:18 9.83604 100.18037 19288 ft 345 kts 355°
2026-05-04 23:18 9.85217 100.17851 19665 ft 347 kts 355°
2026-05-04 23:18 9.88412 100.17495 20387 ft 350 kts 355°
2026-05-04 23:18 9.90053 100.17318 20744 ft 352 kts 355°
2026-05-04 23:19 9.92504 100.17058 21266 ft 355 kts 355°
2026-05-04 23:19 9.94968 100.16802 21781 ft 358 kts 355°
2026-05-04 23:19 9.97462 100.16544 22285 ft 361 kts 355°
2026-05-04 23:19 9.99971 100.16283 22781 ft 364 kts 355°
2026-05-04 23:20 10.02502 100.16018 23274 ft 367 kts 355°
2026-05-04 23:20 10.05056 100.15846 23707 ft 369 kts
2026-05-04 23:20 10.07630 100.15819 24113 ft 372 kts
2026-05-04 23:20 10.10232 100.15792 24517 ft 375 kts
2026-05-04 23:21 10.12850 100.15764 24929 ft 378 kts
2026-05-04 23:21 10.15488 100.15734 25343 ft 381 kts
2026-05-04 23:21 10.18151 100.15703 25747 ft 383 kts
2026-05-04 23:21 10.20828 100.15670 26157 ft 386 kts
2026-05-04 23:22 10.23527 100.15635 26577 ft 389 kts
2026-05-04 23:22 10.26243 100.15600 26979 ft 392 kts
2026-05-04 23:22 10.28981 100.15566 27383 ft 395 kts
2026-05-04 23:22 10.31737 100.15532 27797 ft 398 kts
2026-05-04 23:23 10.34555 100.15499 28214 ft 401 kts
2026-05-04 23:23 10.37317 100.15467 28621 ft 404 kts 360°
2026-05-04 23:23 10.40166 100.15435 29028 ft 407 kts 360°
2026-05-04 23:23 10.43008 100.15402 29418 ft 410 kts 360°
2026-05-04 23:24 10.45875 100.15367 29811 ft 413 kts 360°
2026-05-04 23:24 10.48753 100.15332 30162 ft 415 kts 360°
2026-05-04 23:24 10.51651 100.15297 30499 ft 418 kts 360°
2026-05-04 23:24 10.54561 100.15263 30856 ft 420 kts 360°
2026-05-04 23:25 10.57490 100.15230 31209 ft 422 kts 360°
2026-05-04 23:25 10.60433 100.15196 31554 ft 424 kts 360°
2026-05-04 23:25 10.63378 100.15161 31991 ft 423 kts 359°
2026-05-04 23:25 10.66317 100.15126 32456 ft 421 kts 359°
2026-05-04 23:26 10.69240 100.15089 32908 ft 420 kts 359°
2026-05-04 23:26 10.72157 100.15050 33369 ft 419 kts 359°
2026-05-04 23:26 10.75066 100.15012 33774 ft 418 kts 359°
2026-05-04 23:26 10.77963 100.14976 33876 ft 416 kts 359°
2026-05-04 23:27 10.83832 100.14907 33895 ft 426 kts 359°
2026-05-04 23:27 10.89775 100.14836 33896 ft 428 kts 359°
2026-05-04 23:28 10.95721 100.14766 33894 ft 427 kts 359°
2026-05-04 23:28 11.01673 100.14695 33900 ft 427 kts 359°
2026-05-04 23:29 11.07617 100.14625 33899 ft 427 kts 359°
2026-05-04 23:29 11.13556 100.14551 33897 ft 427 kts 359°
2026-05-04 23:30 11.19528 100.14482 33901 ft 426 kts 359°
2026-05-04 23:30 11.25462 100.14410 33898 ft 426 kts 359°
2026-05-04 23:31 11.31394 100.14342 33900 ft 426 kts 359°
2026-05-04 23:31 11.37313 100.14273 33898 ft 425 kts 359°
2026-05-04 23:32 11.43230 100.14191 33896 ft 425 kts 359°
2026-05-04 23:32 11.49154 100.14122 33896 ft 425 kts 359°
2026-05-04 23:33 11.55068 100.14057 33890 ft 425 kts 359°
2026-05-04 23:33 11.60982 100.13988 33893 ft 425 kts 358°
2026-05-04 23:34 11.66900 100.13913 33894 ft 425 kts 358°
2026-05-04 23:34 11.72804 100.13835 33896 ft 424 kts 358°
2026-05-04 23:35 11.78698 100.13766 33897 ft 424 kts 358°
2026-05-04 23:35 11.84577 100.14056 33891 ft 424 kts
2026-05-04 23:36 11.90400 100.15013 33889 ft 424 kts
2026-05-04 23:36 11.96222 100.15952 33890 ft 424 kts
2026-05-04 23:37 12.02046 100.16904 33889 ft 424 kts
2026-05-04 23:37 12.07902 100.17864 33894 ft 423 kts
2026-05-04 23:38 12.13685 100.18808 33892 ft 423 kts
2026-05-04 23:38 12.19532 100.19765 33891 ft 422 kts
2026-05-04 23:39 12.25331 100.20719 33892 ft 422 kts
2026-05-04 23:39 12.31122 100.21669 33890 ft 421 kts
2026-05-04 23:40 12.36914 100.22616 33889 ft 421 kts
2026-05-04 23:40 12.42696 100.23563 33891 ft 421 kts
2026-05-04 23:41 12.48516 100.24523 33451 ft 426 kts
2026-05-04 23:41 12.51444 100.25004 32966 ft 426 kts
2026-05-04 23:41 12.54360 100.25480 32494 ft 424 kts
2026-05-04 23:42 12.57266 100.25953 32035 ft 422 kts
2026-05-04 23:42 12.60160 100.26426 31572 ft 420 kts
2026-05-04 23:42 12.63037 100.26900 31122 ft 418 kts
2026-05-04 23:42 12.65900 100.27370 30674 ft 416 kts
2026-05-04 23:43 12.68749 100.27839 30242 ft 414 kts
2026-05-04 23:43 12.71597 100.28312 29772 ft 413 kts
2026-05-04 23:43 12.74419 100.28780 29346 ft 410 kts
2026-05-04 23:43 12.77226 100.29244 28923 ft 407 kts
2026-05-04 23:44 12.80004 100.29699 28527 ft 403 kts
2026-05-04 23:44 12.82773 100.30152 28130 ft 401 kts
2026-05-04 23:44 12.85515 100.30600 27736 ft 398 kts
2026-05-04 23:44 12.88247 100.31045 27333 ft 396 kts
2026-05-04 23:45 12.90961 100.31492 26934 ft 394 kts
2026-05-04 23:45 12.93657 100.31937 26524 ft 392 kts
2026-05-04 23:45 12.96340 100.32382 26119 ft 389 kts
2026-05-04 23:45 12.99047 100.32829 25699 ft 387 kts
2026-05-04 23:46 13.01719 100.32990 25272 ft 385 kts 358°
2026-05-04 23:46 13.04389 100.32925 24840 ft 383 kts 358°
2026-05-04 23:46 13.07048 100.32863 24407 ft 382 kts 358°
2026-05-04 23:46 13.09705 100.32804 23963 ft 381 kts 358°
2026-05-04 23:47 13.12346 100.32746 23519 ft 380 kts 358°
2026-05-04 23:47 13.14983 100.32717 23014 ft 378 kts 359°
2026-05-04 23:47 13.17591 100.32729 22561 ft 371 kts 360°
2026-05-04 23:47 13.20143 100.32760 22130 ft 363 kts
2026-05-04 23:48 13.22640 100.32793 21726 ft 356 kts
2026-05-04 23:48 13.25122 100.32821 21419 ft 357 kts 360°
2026-05-04 23:48 13.27603 100.32841 21087 ft 356 kts 360°
2026-05-04 23:48 13.30070 100.32856 20756 ft 354 kts 360°
2026-05-04 23:49 13.32530 100.32869 20427 ft 352 kts 360°
2026-05-04 23:49 13.34969 100.32881 20100 ft 350 kts 360°
2026-05-04 23:49 13.37397 100.32894 19771 ft 348 kts 360°
2026-05-04 23:49 13.39814 100.32909 19449 ft 346 kts 360°
2026-05-04 23:50 13.42218 100.32923 19127 ft 345 kts
2026-05-04 23:50 13.44608 100.32858 18813 ft 343 kts 353°
2026-05-04 23:50 13.46942 100.32371 18491 ft 341 kts 346°
2026-05-04 23:50 13.49246 100.31793 18166 ft 340 kts 346°
2026-05-04 23:51 13.51537 100.31222 17810 ft 338 kts 346°
2026-05-04 23:51 13.53815 100.30658 17499 ft 336 kts 346°
2026-05-04 23:51 13.56080 100.30101 17194 ft 334 kts 346°
2026-05-04 23:51 13.58336 100.29548 16879 ft 332 kts 347°
2026-05-04 23:52 13.60582 100.28996 16567 ft 331 kts 347°
2026-05-04 23:52 13.62090 100.28628 16363 ft 329 kts 347°
2026-05-04 23:52 13.64355 100.28431 16108 ft 327 kts
2026-05-04 23:52 13.66550 100.28988 15871 ft 325 kts 20°
2026-05-04 23:53 13.68674 100.29773 15634 ft 324 kts 20°
2026-05-04 23:53 13.70785 100.30568 15398 ft 323 kts 20°
2026-05-04 23:53 13.72891 100.31369 15164 ft 322 kts 20°
2026-05-04 23:53 13.74978 100.32162 14944 ft 318 kts 20°
2026-05-04 23:54 13.77041 100.32942 14646 ft 313 kts 20°
2026-05-04 23:54 13.79072 100.33710 14283 ft 312 kts 20°
2026-05-04 23:54 13.81101 100.34480 13915 ft 311 kts 20°
2026-05-04 23:54 13.83129 100.35248 13517 ft 310 kts 20°
2026-05-04 23:55 13.85148 100.36008 13129 ft 308 kts 20°
2026-05-04 23:55 13.87156 100.36764 12757 ft 306 kts 20°
2026-05-04 23:55 13.91131 100.38268 12026 ft 303 kts 21°
2026-05-04 23:56 13.93100 100.39014 11654 ft 302 kts 21°
2026-05-04 23:56 13.95066 100.39757 11286 ft 300 kts 21°
2026-05-04 23:56 13.97019 100.40495 10987 ft 297 kts 21°
2026-05-04 23:56 13.98950 100.41224 10646 ft 295 kts 21°
2026-05-04 23:57 14.00879 100.41952 10286 ft 295 kts 21°
2026-05-04 23:57 14.02756 100.42778 9919 ft 293 kts 30°
2026-05-04 23:57 14.04518 100.43871 9406 ft 297 kts 32°
2026-05-04 23:57 14.06274 100.44976 9072 ft 294 kts 32°
2026-05-04 23:58 14.08027 100.46082 8619 ft 293 kts 32°
2026-05-04 23:58 14.09712 100.47142 8497 ft 276 kts 32°
2026-05-04 23:58 14.11306 100.48145 8360 ft 262 kts 32°
2026-05-04 23:58 14.12840 100.49112 8079 ft 256 kts 32°
2026-05-04 23:59 14.14344 100.50060 7954 ft 253 kts 32°
2026-05-04 23:59 14.15859 100.51015 7745 ft 252 kts 32°
2026-05-04 23:59 14.17350 100.51953 7501 ft 251 kts 32°
2026-05-04 23:59 14.18788 100.52949 7253 ft 248 kts 44°
2026-05-05 00:00 14.19803 100.54364 7011 ft 245 kts 66°
2026-05-05 00:00 14.20143 100.55463 6824 ft 244 kts 81°
2026-05-05 00:00 14.20050 100.57778 6450 ft 242 kts 98°
2026-05-05 00:00 14.19825 100.59493 6154 ft 241 kts 98°
2026-05-05 00:01 14.19606 100.61202 5870 ft 240 kts 98°
2026-05-05 00:01 14.19389 100.62909 5590 ft 239 kts 98°
2026-05-05 00:01 14.19174 100.64605 5311 ft 238 kts 97°
2026-05-05 00:01 14.18960 100.66295 5032 ft 237 kts 97°
2026-05-05 00:02 14.18648 100.67963 4679 ft 239 kts 112°
2026-05-05 00:02 14.17635 100.69303 4299 ft 241 kts 145°
2026-05-05 00:02 14.16132 100.70055 3966 ft 242 kts 156°
2026-05-05 00:02 14.14600 100.70748 3704 ft 240 kts 155°
2026-05-05 00:03 14.13057 100.71432 3422 ft 239 kts 160°
2026-05-05 00:03 14.11463 100.71673 3306 ft 228 kts 181°
2026-05-05 00:03 14.09957 100.71344 3205 ft 216 kts 201°
2026-05-05 00:03 14.08662 100.70654 3144 ft 204 kts 208°
2026-05-05 00:04 14.07449 100.69972 3100 ft 191 kts 207°
2026-05-05 00:04 14.06324 100.69341 2954 ft 180 kts 207°
2026-05-05 00:04 14.05258 100.68743 2752 ft 170 kts 207°
2026-05-05 00:04 14.04254 100.68178 2551 ft 159 kts 207°
2026-05-05 00:05 14.03338 100.67664 2361 ft 142 kts 208°
2026-05-05 00:05 14.02493 100.67190 2182 ft 135 kts 208°
2026-05-05 00:05 14.01675 100.66731 2010 ft 133 kts 208°
2026-05-05 00:05 14.00868 100.66278 1839 ft 132 kts 208°
2026-05-05 00:06 14.00067 100.65828 1682 ft 131 kts 209°
2026-05-05 00:06 13.99258 100.65374 1506 ft 131 kts 209°
2026-05-05 00:06 13.98471 100.64932 1335 ft 131 kts 208°
2026-05-05 00:06 13.97663 100.64479 1166 ft 130 kts 208°
2026-05-05 00:07 13.96869 100.64033 993 ft 130 kts 208°
2026-05-05 00:07 13.96069 100.63597 839 ft 130 kts 208°
2026-05-05 00:07 13.95283 100.63149 684 ft 128 kts 210°
2026-05-05 00:07 13.94509 100.62709 528 ft 126 kts 210°
2026-05-05 00:08 13.93745 100.62278 350 ft 125 kts 210°
2026-05-05 00:08 13.92986 100.61851 173 ft 124 kts 209°
2026-05-05 00:08 13.92234 100.61433 24 ft 122 kts 208°
2026-05-05 00:08 13.91581 100.61065 20 ft 85 kts 209°
2026-05-05 00:09 13.91214 100.60860 17 ft 36 kts 208°
2026-05-05 00:09 13.90984 100.60731 21 ft 39 kts 208°
2026-05-05 00:09 13.90739 100.60593 20 ft 41 kts 209°
2026-05-05 00:09 13.90482 100.60448 19 ft 43 kts 208°
2026-05-05 00:10 13.90257 100.60323 18 ft 23 kts 208°
2026-05-05 00:10 13.90159 100.60258 17 ft 13 kts 229°
2026-05-05 00:10 13.90150 100.60164 18 ft 15 kts 298°
2026-05-05 00:10 13.90202 100.60073 18 ft 14 kts 299°
2026-05-05 00:11 13.90254 100.59977 18 ft 17 kts 298°
2026-05-05 00:11 13.90310 100.59870 17 ft 15 kts 298°
2026-05-05 00:11 13.90365 100.59766 17 ft 18 kts 298°
2026-05-05 00:11 13.90403 100.59695 20 ft 11 kts 299°
2026-05-05 00:12 13.90464 100.59658 17 ft 13 kts 17°
2026-05-05 00:12 13.90508 100.59680 17 ft 0 kts 29°
2026-05-05 00:31 13.90509 100.59680 17 ft 0 kts 29°
2026-05-05 00:31 13.90519 100.59685 17 ft 3 kts 29°
2026-05-05 00:32 13.90553 100.59705 19 ft 7 kts 29°
2026-05-05 00:32 13.90607 100.59735 17 ft 10 kts 28°
2026-05-05 00:32 13.90679 100.59775 17 ft 13 kts 28°
2026-05-05 00:32 13.90768 100.59825 17 ft 15 kts 28°
2026-05-05 00:33 13.90851 100.59879 19 ft 15 kts 47°
2026-05-05 00:33 13.90908 100.59964 17 ft 15 kts 45°
2026-05-05 00:33 13.91000 100.60035 19 ft 17 kts 37°
2026-05-05 00:33 13.91067 100.60086 18 ft 11 kts 33°
2026-05-05 00:34 13.91134 100.60125 18 ft 10 kts 30°
2026-05-05 00:34 13.91186 100.60151 18 ft 7 kts
2026-05-05 00:34 13.91219 100.60122 17 ft 6 kts 299°
2026-05-05 00:34 13.91239 100.60085 19 ft 6 kts 300°
2026-05-05 00:35 13.91261 100.60052 18 ft 6 kts 319°
2026-05-05 00:35 13.91298 100.60056 18 ft 6 kts 26°
2026-05-05 00:35 13.91327 100.60072 18 ft 4 kts 28°
2026-05-05 00:35 13.91343 100.60081 18 ft 1 kts 28°
2026-05-05 00:36 13.91345 100.60082 18 ft 0 kts 28°
2026-05-05 00:40 13.91346 100.60082 18 ft 0 kts 28°